Weather History for Hamilton Island, QU

Change the Weather History Date:

Friday, October 5, 2012

  Actual Average Record
Temperature  
Mean Temperature 72 °F -  
Max Temperature 77 °F - - ()
Min Temperature 66 °F - - ()
Cooling Degree Days 6    
Growing Degree Days 22 (Base 50)    
Moisture  
Dew Point 59 °F    
Average Humidity 60    
Maximum Humidity 73    
Minimum Humidity 46    
Precipitation  
Precipitation 0.00 in - - ()
Sea Level Pressure  
Sea Level Pressure 30.10 in    
Wind  
Wind Speed 21 mph ()    
Max Wind Speed 29 mph    
Max Gust Speed -    
T = Trace of Precipitation, MM = Missing Value Source: Averaged Metar Reports

Daily Weather History Graph

Daily Weather History Graph

Search for Another Location

Airport:

Trip Planner

Search our weather history database for the weather conditions in past years. The results will help you decide how hot, cold, wet, or windy it might be!

Date:

Astronomy

Oct. 05, 2012 Rise Set
Actual Time 5:42 AM AEST 6:03 PM AEST
Civil Twilight 5:19 AM AEST 6:25 PM AEST
Nautical Twilight 4:54 AM AEST 6:51 PM AEST
Astronomical Twilight 4:27 AM AEST 7:17 PM AEST
Moon 10:21 PM AEST (10/5) 8:50 AM AEST (10/5)
Length of Visible Light 13h 05m
Length of Day
12h 21m
Waning Gibbous, 79% of the Moon is Illuminated
Oct 5
Waning Gibbous
Oct 8
Last Quarter
Oct 15
New
Oct 22
First Quarter
Oct 30
Full

Hourly Weather History & Observations

Time (AEST) Temp. Dew Point Humidity Pressure Visibility Wind Dir Wind Speed Gust Speed Precip Events Conditions
12:00 AM 71 °F 57 °F 52% 30.10 in - ESE 20.7 mph - -  
12:00 AM 71.6 °F 57.2 °F 60% 30.09 in - ESE 20.7 mph - N/A   Unknown
12:30 AM 71.6 °F 57.2 °F 60% 30.09 in - ESE 20.7 mph - N/A   Unknown
1:00 AM 71.6 °F 55.4 °F 57% 30.09 in - ESE 20.7 mph - N/A   Unknown
1:30 AM 71.6 °F 57.2 °F 60% 30.06 in - ESE 25.3 mph - N/A   Unknown
2:00 AM 71.6 °F 59.0 °F 64% 30.06 in - ESE 20.7 mph - N/A   Unknown
2:30 AM 71.6 °F 57.2 °F 60% 30.06 in - ESE 24.2 mph - N/A   Unknown
3:00 AM 71 °F 58 °F 55% 30.06 in - SE 23.0 mph - -  
3:00 AM 71.6 °F 59.0 °F 64% 30.06 in - SE 23.0 mph - N/A   Unknown
3:30 AM 71.6 °F 59.0 °F 64% 30.06 in - SE 24.2 mph - N/A   Unknown
4:00 AM 71.6 °F 59.0 °F 64% 30.06 in - SE 25.3 mph - N/A   Unknown
4:30 AM 71.6 °F 59.0 °F 64% 30.06 in - SE 24.2 mph - N/A   Unknown
5:00 AM 71.6 °F 59.0 °F 64% 30.06 in - SE 26.5 mph - N/A   Unknown
5:30 AM 71.6 °F 59.0 °F 64% 30.09 in - SE 28.8 mph - N/A   Unknown
6:00 AM 72 °F 60 °F 57% 30.09 in - SE 28.8 mph - -  
6:00 AM 71.6 °F 60.8 °F 69% 30.09 in - SE 28.8 mph - N/A   Unknown
6:30 AM 71.6 °F 59.0 °F 64% 30.09 in - SE 25.3 mph - N/A   Unknown
7:00 AM 73.4 °F 59.0 °F 61% 30.12 in - ESE 26.5 mph - N/A   Unknown
7:30 AM 73.4 °F 59.0 °F 61% 30.12 in - ESE 24.2 mph - N/A   Unknown
8:00 AM 73.4 °F 59.0 °F 61% 30.12 in - ESE 25.3 mph - N/A   Unknown
8:30 AM 73.4 °F 59.0 °F 61% 30.15 in - ESE 23.0 mph - N/A   Unknown
9:00 AM 76 °F 59 °F 46% 30.15 in - ESE 27.6 mph - -  
9:00 AM 75.2 °F 59.0 °F 57% 30.15 in - ESE 27.6 mph - N/A   Unknown
9:30 AM 77.0 °F 57.2 °F 50% 30.15 in - ESE 24.2 mph - N/A   Unknown
10:00 AM 75.2 °F 57.2 °F 53% 30.15 in - ESE 23.0 mph - N/A   Unknown
11:00 AM 77.0 °F 59.0 °F 54% 30.12 in - ESE 23.0 mph - N/A   Unknown
11:30 AM 77.0 °F 59.0 °F 54% 30.12 in - ESE 23.0 mph - N/A   Unknown
12:00 PM 76 °F 59 °F 46% 30.13 in - ESE 21.9 mph - -  
12:00 PM 77.0 °F 59.0 °F 54% 30.12 in - ESE 21.9 mph - N/A   Unknown
12:30 PM 75.2 °F 57.2 °F 53% 30.12 in - ESE 24.2 mph - N/A   Unknown
1:00 PM 77.0 °F 59.0 °F 54% 30.09 in - ESE 23.0 mph - N/A   Unknown
1:30 PM 77.0 °F 59.0 °F 54% 30.09 in - ESE 20.7 mph - N/A   Unknown
2:00 PM 75.2 °F 57.2 °F 53% 30.09 in - ESE 20.7 mph - N/A   Unknown
2:30 PM 75.2 °F 59.0 °F 57% 30.06 in - ESE 20.7 mph - N/A   Unknown
3:00 PM 75 °F 58 °F 46% 30.08 in - SE 20.7 mph - -  
3:00 PM 75.2 °F 59.0 °F 57% 30.06 in - SE 20.7 mph - N/A   Unknown
3:30 PM 75.2 °F 59.0 °F 57% 30.06 in - ESE 19.6 mph - N/A   Unknown
4:00 PM 73.4 °F 59.0 °F 61% 30.06 in - ESE 19.6 mph - N/A   Unknown
4:30 PM 73.4 °F 59.0 °F 61% 30.06 in - ESE 21.9 mph - N/A   Unknown
5:00 PM 73.4 °F 59.0 °F 61% 30.06 in - ESE 21.9 mph - N/A   Unknown
5:30 PM 71.6 °F 59.0 °F 64% 30.06 in - SE 20.7 mph - N/A   Unknown
6:00 PM 72 °F 60 °F 56% 30.09 in - SE 21.9 mph - -  
6:00 PM 71.6 °F 59.0 °F 64% 30.09 in - SE 21.9 mph - N/A   Unknown
6:30 PM 71.6 °F 60.8 °F 69% 30.09 in - ESE 20.7 mph - N/A   Unknown
7:00 PM 71.6 °F 59.0 °F 64% 30.09 in - SE 20.7 mph - N/A   Unknown
7:30 PM 71.6 °F 60.8 °F 69% 30.09 in - SE 19.6 mph - N/A   Unknown
8:00 PM 71.6 °F 59.0 °F 64% 30.12 in - SE 20.7 mph - N/A   Unknown
8:30 PM 71.6 °F 60.8 °F 69% 30.12 in - SE 18.4 mph - N/A   Unknown
9:00 PM 71 °F 60 °F 60% 30.13 in - SE 19.6 mph - -  
9:00 PM 71.6 °F 60.8 °F 69% 30.12 in - SE 19.6 mph - N/A   Unknown
9:30 PM 71.6 °F 60.8 °F 69% 30.12 in - SE 18.4 mph - N/A   Unknown
10:00 PM 71.6 °F 60.8 °F 69% 30.12 in - SE 19.6 mph - N/A   Unknown
10:30 PM 71.6 °F 60.8 °F 69% 30.12 in - SE 17.3 mph - N/A   Unknown
11:00 PM 71.6 °F 62.6 °F 73% 30.12 in - SE 16.1 mph - N/A   Unknown
11:30 PM 71.6 °F 60.8 °F 69% 30.12 in - SE 15.0 mph - N/A   Unknown